Location: Bottom School (historical)
(37.9078°N, 89.3593°W)
Time: 07:24:51
(UTC+00:00)

BlueWalker 3 - Visible Passes

Search period start: 28 November 2022 00:00
Search period end: 08 December 2022 00:00
Orbit: 500 x 519 km, 53.2° (Epoch: 27 November)

Date Brightness Start Highest point End Pass type
(mag) Time Alt. Az. Time Alt. Az. Time Alt. Az.
28 Nov 4.3 23:31:37 10° WNW 23:33:53 15° NNW 23:36:10 10° NNE visible
29 Nov 4.3 23:13:24 10° NW 23:15:34 14° NNW 23:17:45 10° NNE visible
06 Dec 4.6 00:43:01 10° NNW 00:43:22 11° NNW 00:43:22 11° NNW visible
07 Dec 4.1 00:24:34 10° NNW 00:25:54 16° N 00:25:54 16° N visible
